7 * 24
多渠道服务支持
STARLINK-32536 是 SpaceX Starlink 卫星互联网项目中的第 32536 颗卫星,属于该星座的中轨道通信卫星群。该卫星由 SpaceX 设计并发射,旨在为全球用户提供高速、低延迟的互联网服务。它运行在约 550 公里的轨道高度,配备先进通信设备,支持宽带数据传输。Starlink 项目致力于覆盖偏远地区,提升全球网络接入能力。STARLINK-32536 的部署进一步增强了 Starlink 网络的稳定性和覆盖范围。
美国
(US)
| 数据来源 | 国际轨道数据 |
| 星历时间: | 2025-12-19T17:04:43+0800 1天前 查看轨道信息 |
| 半长轴: | 6861.163km |
| 偏心率: | 0.000117 |
| 轨道倾角: | 43.002° |
| 近地点辐角 | 275.813° |
| 升交点赤经 | 19.262° |
| 平近点角 | 84.259° |
| 近地点: | 482.223km |
| 远地点: | 483.829km |
| 周期: | 94.266分钟 |
| 每日圈数: | 15.275878 |